Location: Keppel Henge
(44.7900°N, 80.9447°W)
Time: 02:38:39
(UTC-05:00)

Vanguard 1 Rocket - Pass Details

Date: 31 October 2017
Orbit: 655 x 4222 km, 34.3° (Epoch: 18 November)

Event Time Altitude Azimuth Distance (km) Brightness Sun altitude
Rises 10:47:59 0° 267° (W) 4,201 10.5 23.0°
Reaches altitude 10° 10:53:19 10° 237° (WSW) 2,617 9.8 23.5°
Maximum altitude 10:55:20 12° 217° (SW) 2,301 9.8 23.7°
Drops below altitude 10° 10:57:08 10° 196° (SSW) 2,277 10.1 23.9°
Sets 11:00:53 0° 161° (SSE) 2,993 11.3 24.3°
